This is the latest recevied weather packets stored in our database for station/object KC5TIL. If no packets are shown the sender has not sent any weather packets the latest 10 day(s).
| Time | Temp. | Humidity | Pressure | Rain* | Wind** | Luminosity | Snow |
|---|---|---|---|---|---|---|---|
| 1777747063 | 24.44° C | 37% | 1022.1 hPa | 0 mm | - | 708 W/m² | - |
| 1777746759 | 23.89° C | 40% | 1022.3 hPa | 0 mm | - | 702 W/m² | - |
| 1777746454 | 23.89° C | 36% | 1022.2 hPa | 0 mm | - | 712 W/m² | - |
| 1777746150 | 23.89° C | 39% | 1022.5 hPa | 0 mm | - | 711 W/m² | - |
| 1777745847 | 23.89° C | 40% | 1022.4 hPa | 0 mm | - | 718 W/m² | - |
| 1777745546 | 24.44° C | 41% | 1022.4 hPa | 0 mm | - | 730 W/m² | - |
| 1777745242 | 23.89° C | 40% | 1022.5 hPa | 0 mm | - | 730 W/m² | - |
| 1777744940 | 23.89° C | 38% | 1022.6 hPa | 0 mm | - | 736 W/m² | - |
| 1777744634 | 23.33° C | 44% | 1022.7 hPa | 0 mm | - | 737 W/m² | - |
| 1777744329 | 22.22° C | 41% | 1022.8 hPa | 0 mm | - | 686 W/m² | - |
| 1777744026 | 22.78° C | 42% | 1023 hPa | 0 mm | - | 632 W/m² | - |
| 1777743723 | 22.78° C | 43% | 1023.1 hPa | 0 mm | - | 681 W/m² | - |
| 1777743420 | 22.78° C | 45% | 1023 hPa | 0 mm | - | 731 W/m² | - |
| 1777743118 | 23.33° C | 43% | 1023.1 hPa | 0 mm | - | 734 W/m² | - |
| 1777742815 | 23.89° C | 44% | 1023.3 hPa | 0 mm | - | 745 W/m² | - |
| 1777742511 | 23.33° C | 42% | 1023.4 hPa | 0 mm | - | 743 W/m² | - |
| 1777742207 | 23.33° C | 38% | 1023.4 hPa | 0 mm | - | 730 W/m² | - |
| 1777741904 | 22.78° C | 45% | 1023.5 hPa | 0 mm | - | 746 W/m² | - |
| 1777741601 | 22.78° C | 40% | 1023.3 hPa | 0 mm | - | 759 W/m² | - |
| 1777741298 | 22.22° C | 41% | 1023.6 hPa | 0 mm | - | 763 W/m² | - |
| 1777740995 | 22.22° C | 40% | 1023.4 hPa | 0 mm | - | 777 W/m² | - |
| 1777740692 | 22.22° C | 40% | 1023.6 hPa | 0 mm | - | 789 W/m² | - |
| 1777740387 | 22.78° C | 41% | 1023.4 hPa | 0 mm | - | 791 W/m² | - |
| 1777740085 | 21.67° C | 45% | 1023.6 hPa | 0 mm | - | 789 W/m² | - |
| 1777739781 | 21.67° C | 44% | 1023.6 hPa | 0 mm | - | 812 W/m² | - |
* Rain latest hour (hover to see other rain measurements)
** Current wind speed in m/s (hover to see current wind gust speed)